Date,TemperatureHighF,TemperatureAvgF,TemperatureLowF,DewpointHighF,DewpointAvgF,DewpointLowF,HumidityHigh,HumidityAvg,HumidityLow,PressureMaxIn,PressureMinIn,WindSpeedMaxMPH,WindSpeedAvgMPH,GustSpeedMaxMPH,PrecipitationSumIn
2013-3-1,41,37,32,32,30,26,92,76,66,29.84,29.67,14,9,0,0.00
2013-3-2,36,32,29,26,24,22,79,70,62,29.84,29.76,16,9,0,0.00
2013-3-3,33,30,26,25,22,18,83,71,63,29.84,29.76,17,13,0,0.00
2013-3-4,35,30,26,23,20,17,71,67,60,30.00,29.84,22,17,0,0.00
2013-3-5,44,34,26,30,25,20,87,70,54,30.06,29.91,16,7,0,0.00
2013-3-6,38,36,32,36,32,27,95,88,74,29.95,29.71,25,16,0,0.00
2013-3-7,43,38,33,30,27,25,78,66,54,30.11,29.95,17,11,0,0.00
2013-3-8,41,36,29,29,26,22,91,67,61,30.26,30.08,23,14,0,0.00
2013-3-9,56,44,32,31,25,22,69,51,34,30.32,30.24,12,6,0,0.00
2013-3-10,55,45,35,36,28,19,94,55,33,30.34,30.24,13,8,0,0.00
2013-3-11,53,45,37,49,42,36,99,92,79,30.27,30.02,14,10,0,0.00
2013-3-12,55,49,40,54,46,32,98,90,73,30.02,29.69,20,14,0,0.00
2013-3-13,45,39,33,34,29,20,80,68,47,29.99,29.86,19,9,0,0.00
2013-3-14,39,33,28,22,18,15,71,55,41,30.04,29.96,25,16,0,0.00
2013-3-15,50,38,26,33,22,14,68,54,41,30.05,29.77,17,7,0,0.00
2013-3-16,42,37,32,34,31,29,96,81,67,29.93,29.72,13,6,0,0.00
2013-3-17,38,33,31,31,27,21,96,80,58,30.29,29.93,11,4,0,0.00
2013-3-18,36,32,29,34,25,16,97,75,58,30.35,29.89,16,9,0,0.00
2013-3-19,50,39,34,39,32,20,98,79,35,29.89,29.71,19,10,0,0.00
2013-3-20,45,37,29,24,20,17,67,51,33,29.95,29.78,19,8,0,0.00
2013-3-21,36,31,26,28,19,11,93,63,44,29.83,29.70,16,10,0,0.00
2013-3-22,39,31,25,24,20,14,76,65,51,29.98,29.82,20,11,0,0.00
2013-3-23,44,35,28,27,23,21,77,62,47,29.98,29.91,19,12,0,0.00
2013-3-24,43,35,27,28,23,20,79,62,44,30.00,29.68,12,4,0,0.00
2013-3-25,35,33,31,33,30,27,97,90,71,29.70,29.49,13,7,0,0.00
2013-3-26,47,38,32,36,32,28,96,81,49,29.93,29.66,14,8,0,0.00
2013-3-27,46,40,35,33,30,27,80,67,52,30.06,29.93,20,12,0,0.00
2013-3-28,44,39,34,33,30,27,82,69,56,30.18,30.03,15,10,0,0.00
2013-3-29,49,43,35,34,30,27,79,61,47,30.21,30.12,14,8,0,0.00
2013-3-30,54,45,37,32,28,25,71,53,32,30.22,30.11,10,4,0,0.00
2013-3-31,50,44,38,45,36,-100,98,78,53,30.13,29.72,16,8,0,0.00